Retour au catalogue

STARLINK-37400

ActifCommunicationsSSO
NORAD 68777·PAYLOAD·🇺🇸 United States

Lancé Apr 19, 2026 depuis Vandenberg Space Force Base

Loading…

Prochains Passages (prochaines 24 heures)

TLE

FraisSource: CelesTrak SupGP

Époque: Sep 15, 2026, 04:17 UTC

1 68777C 26086M   26258.17895833 -.00037725  00000+0 -11717-2 0  2586
2 68777  97.2842 293.6961 0000964 108.3271 133.8603 15.33440546    16

Suivez STARLINK-37400 en temps réel avec AllMySat

Download on the App Store